Temp
10 11 11 11 11 11 10 11 11 11 11 11 11 11 11 11 11 11 11 11 11 12 12 12 12 12 12 12 11 11 11 11 10 10 11 10 10 10 10 10 11 11 11 11 10 10 11 11 10 10 10 9 9 9 9 9 10 10 10 11 11 11 11 11 11 11 11 11 11
10 10 11 11 10 10 10 10 10 10 11 11 11 11 10 11 11 11 11 11 11 12 12 12 12 12 11 11 11 10 11 11 11 11 11 10 10 10 10 11 11 11 11 10 10 10 10 11 11 10 10 9 9 9 9 10 10 10 10 10 10 10 10 10 10 11 11 11 11
10 10 10 10 9 9 10 10 10 10 10 10 10 10 10 10 11 11 11 11 12 12 12 12 11 11 11 11 11 11 11 11 11 11 10 10 10 11 11 11 11 11 11 11 11 11 11 11 11 11 11 11 10 10 10 10 10 10 9 10 10 10 10 10 10 10 11 11 11
10 10 10 10 9 9 9 10 10 10 10 10 10 10 10 10 11 11 11 11 11 11 11 11 11 11 11 11 11 11 11 11 11 11 11 11 11 11 11 11 11 11 11 11 11 11 11 11 11 11 11 10 10 10 10 9 9 9 9 9 9 10 10 10 10 10 10 10 10
9 9 9 10 9 9 9 9 10 10 10 10 10 10 10 10 11 11 11 11 11 11 11 11 11 11 11 11 11 11 11 11 11 11 11 12 12 12 12 11 11 11 11 11 11 11 10 10 10 9 9 9 9 8 8 8 8 8 8 9 9 9 9 9 10 10 10 10 10
9 9 10 10 9 9 9 9 10 10 10 10 10 10 10 10 11 11 11 11 11 11 11 11 10 10 10 10 10 10 11 11 11 11 12 12 12 12 11 11 11 11 11 10 10 9 9 9 8 8 8 8 8 7 7 7 8 8 8 8 8 9 9 9 9 9 9 9 9
9 9 10 10 9 9 9 9 9 9 10 10 10 10 10 10 10 10 10 10 11 10 10 10 10 10 10 10 11 11 11 11 12 12 12 12 12 11 11 11 11 10 9 9 8 8 7 7 7 7 7 7 7 7 7 7 7 7 7 7 7 7 7 7 7 7 7 7 7
9 9 10 10 10 9 9 9 9 9 9 10 10 10 9 10 10 10 10 10 10 10 10 10 10 10 10 11 11 12 12 12 12 12 12 11 11 11 11 10 9 8 7 7 7 7 7 7 7 7 7 7 7 7 7 7 6 6 6 6 6 6 6 6 6 6 6 6 6
9 9 9 10 10 9 9 9 9 9 9 9 9 9 9 9 9 10 10 10 10 10 10 10 10 10 10 11 11 12 12 12 11 11 11 11 10 10 9 8 7 7 6 6 7 7 7 7 7 7 7 7 7 7 7 6 6 6 7 7 6 6 6 6 6 6 6 6 6
9 9 9 9 9 9 9 9 9 9 9 9 9 9 9 9 9 9 10 10 10 10 10 10 10 10 11 11 11 11 11 11 11 10 10 9 8 8 7 7 7 6 6 6 7 7 7 7 7 6 6 6 6 6 6 6 6 6 6 6 6 6 7 6 6 6 6 6 6
9 9 9 9 9 9 9 9 9 9 9 9 9 8 8 9 9 9 9 10 10 10 10 10 10 11 11 11 11 11 10 9 9 8 7 7 7 7 7 6 6 6 6 6 6 6 6 6 6 6 6 6 6 6 6 6 6 6 6 6 6 6 6 6 6 6 6 6 6
9 9 9 9 9 9 9 9 9 8 8 8 8 8 8 8 9 9 9 9 9 9 10 10 10 10 10 10 9 9 8 7 7 7 7 7 7 7 6 6 6 6 6 6 6 6 6 6 6 6 6 6 6 6 6 6 6 6 6 6 6 6 6 6 6 6 6 6 6
9 9 9 9 9 8 8 8 8 8 8 8 8 8 8 8 9 9 9 9 9 9 10 10 9 9 8 8 7 7 6 6 6 7 7 7 6 6 6 6 6 6 6 6 6 6 6 6 6 6 6 6 6 6 6 6 6 6 6 6 6 6 6 6 6 6 6 6 6
8 8 8 8 8 8 8 8 8 8 8 8 8 8 8 8 8 8 9 9 9 9 8 8 7 7 6 6 6 6 6 7 7 7 7 6 6 6 6 6 6 6 6 6 6 6 7 7 7 7 7 7 7 7 7 7 7 7 7 7 7 6 6 6 6 6 6 5 5
8 8 8 8 8 8 8 8 8 8 8 8 8 8 8 8 8 8 8 8 7 7 7 6 6 6 6 6 6 6 7 7 6 6 6 6 6 6 6 6 6 6 6 6 7 7 7 7 7 7 7 7 7 7 7 7 7 7 7 7 6 6 6 6 6 6 6 5 5
8 8 7 7 7 8 8 8 8 8 8 8 8 8 8 8 8 7 7 7 6 6 6 6 6 6 6 6 6 6 6 6 6 6 6 6 6 6 6 6 6 6 6 7 7 7 7 7 7 6 6 6 6 6 6 6 6 6 6 6 6 6 6 6 6 6 6 6 6
8 8 7 7 7 8 8 8 8 8 8 8 7 7 7 7 7 6 6 6 6 6 6 6 6 6 6 6 6 6 6 6 6 6 6 6 6 6 6 6 6 6 6 6 6 6 6 6 6 6 6 6 5 5 5 5 5 5 5 5 5 5 5 5 5 5 5 5 5
8 7 7 7 7 7 8 8 7 7 7 7 7 7 7 6 6 6 6 6 6 6 6 6 6 6 6 6 6 6 6 6 6 6 6 6 6 6 6 6 6 6 6 6 6 6 6 5 5 5 5 5 5 5 5 5 5 5 5 5 4 4 4 4 4 4 4 4 4
7 7 7 7 7 7 7 7 7 7 6 6 6 6 6 6 6 6 5 5 5 6 6 6 6 6 6 6 6 6 6 6 6 6 6 6 6 6 6 6 6 6 5 5 5 5 5 5 5 5 4 4 4 4 4 4 4 4 4 4 4 4 4 4 3 3 3 3 3
6 6 6 6 6 6 6 6 6 6 5 5 5 5 5 5 5 5 5 5 6 6 6 6 6 6 6 6 6 6 6 6 6 6 6 6 6 6 6 5 5 5 5 5 5 4 4 4 4 4 4 4 4 4 4 4 4 4 4 4 4 3 3 3 3 3 3 3 3
6 6 6 6 6 6 6 5 5 4 4 4 4 4 5 5 5 5 5 5 6 6 6 6 6 6 6 6 6 6 6 6 6 6 6 6 5 5 5 5 5 5 4 4 4 4 4 4 4 4 4 4 4 4 4 4 4 3 3 3 3 3 3 3 3 3 3 3 3
5 5 4 4 4 4 4 4 3 3 3 4 4 4 4 5 5 5 5 6 6 6 6 6 5 5 5 5 5 6 6 6 6 6 5 5 5 5 5 4 4 4 4 4 3 3 3 3 3 3 3 3 3 3 3 3 3 3 3 3 3 3 3 3 3 3 3 3 3
4 4 3 3 3 4 4 3 3 4 4 4 5 5 5 5 5 5 6 6 6 5 5 5 5 5 5 5 5 5 5 5 5 5 5 5 4 4 4 4 4 4 3 3 3 3 3 3 3 3 3 3 3 3 2 2 2 2 2 2 2 2 2 2 2 2 2 2 2
3 3 3 3 4 4 4 4 4 5 5 5 5 5 5 5 5 5 5 5 5 5 5 5 5 5 5 5 5 5 5 5 4 4 4 4 4 4 3 3 3 3 3 3 2 2 2 2 2 2 2 2 2 2 2 2 2 2 2 2 2 2 2 2 2 2 2 2 1
2 2 3 4 4 4 5 5 5 5 5 5 5 5 5 5 5 5 5 5 5 4 4 4 4 4 4 5 4 4 4 4 4 4 4 4 4 3 3 3 3 3 2 2 2 2 2 2 2 2 2 2 2 2 2 2 2 2 2 2 1 1 1 1 1 1 1 1 1
2 3 3 4 4 4 4 5 5 5 4 4 4 4 4 4 4 4 4 4 4 4 4 4 4 4 4 4 4 4 4 4 3 3 3 3 3 3 3 3 2 2 2 2 2 2 2 2 2 2 2 2 2 2 2 2 1 1 1 1 1 1 1 1 1 1 1 1 0
3 4 4 4 4 4 4 4 4 4 4 4 4 4 4 4 4 4 4 4 4 4 4 4 4 4 4 4 4 3 3 3 3 3 3 3 2 2 2 2 2 2 2 2 2 2 2 2 1 1 1 1 2 2 2 1 1 1 1 1 1 1 1 1 1 1 0 0 0
4 4 4 4 4 4 4 4 4 4 4 4 4 4 4 4 4 4 4 4 4 4 4 4 4 4 4 3 3 3 3 3 3 3 2 2 2 2 2 2 1 1 1 1 1 1 1 1 1 1 1 1 1 1 1 1 1 1 1 1 0 0 0 0 0 0 0 0 -0
4 4 4 4 4 4 4 4 4 4 4 4 4 3 3 3 4 4 4 4 4 4 4 4 3 3 3 3 3 3 3 3 2 2 2 2 2 1 1 1 1 1 1 1 1 1 1 1 1 0 0 0 0 1 1 1 1 0 0 0 0 0 0 -0 -0 -0 -0 -0 -1
3 3 4 4 4 4 4 4 4 3 3 3 3 3 3 3 4 4 4 4 4 4 3 3 3 3 3 3 3 2 2 2 2 2 1 1 1 1 1 1 1 1 1 1 0 0 0 0 -0 -0 -0 -1 -0 -0 0 0 0 0 -0 -0 -0 -0 -0 -1 -1 -1 -1 -1 -1
3 3 3 3 3 4 4 3 3 3 3 3 3 3 3 4 4 4 4 4 3 3 3 3 3 3 2 2 2 2 2 1 1 1 1 1 1 1 0 0 0 0 0 0 0 -0 -0 -0 -1 -1 -1 -1 -1 -1 -1 -1 -1 -1 -1 -1 -1 -1 -1 -1 -1 -1 -2 -2 -2
2 3 3 3 3 3 3 3 3 3 3 3 3 3 3 3 3 3 3 3 3 3 3 2 2 2 2 2 2 1 1 1 1 0 0 0 0 0 0 0 -0 -0 -0 -0 -0 -0 -1 -1 -1 -1 -2 -2 -2 -1 -1 -1 -1 -1 -1 -2 -2 -2 -2 -2 -2 -2 -2 -2 -3
3 3 3 3 3 3 3 3 3 3 3 3 3 3 3 3 3 3 2 2 2 2 2 2 2 2 2 1 1 1 0 0 0 0 -0 -0 -0 -0 -0 -0 -0 -0 -0 -0 -1 -1 -1 -1 -1 -2 -2 -3 -2 -2 -2 -2 -2 -2 -2 -2 -2 -2 -3 -3 -3 -3 -3 -3 -3
3 3 3 3 3 3 3 3 3 3 3 3 3 3 3 3 2 2 2 2 2 2 2 2 1 1 1 1 0 0 0 -0 -0 -0 -0 -0 -0 -0 -0 -0 -1 -1 -1 -1 -1 -1 -1 -2 -2 -3 -3 -3 -3 -3 -3 -3 -3 -3 -3 -3 -3 -3 -3 -3 -3 -3 -4 -4 -4
3 3 3 3 3 3 3 3 3 3 3 3 3 3 2 2 2 2 2 2 2 2 2 1 1 1 0 0 -0 -0 -0 -0 -0 -0 -0 -0 -0 -0 -1 -1 -1 -1 -1 -1 -1 -2 -2 -2 -3 -4 -4 -4 -4 -4 -4 -4 -4 -4 -4 -4 -4 -4 -4 -4 -4 -4 -4 -4 -5
3 3 3 3 3 3 3 3 2 2 2 2 2 2 2 2 2 2 2 2 2 1 1 1 1 0 0 -0 -0 -0 -0 -0 -0 -0 -1 -1 -1 -1 -1 -1 -1 -1 -2 -2 -2 -2 -3 -3 -4 -5 -6 -6 -6 -5 -5 -5 -5 -5 -5 -5 -5 -5 -5 -5 -5 -5 -5 -5 -5
2 2 2 2 2 2 2 2 2 2 2 2 2 2 2 2 2 1 1 1 1 1 1 0 0 -0 -0 -0 -1 -1 -1 -1 -1 -1 -1 -1 -1 -1 -2 -2 -2 -2 -2 -3 -3 -3 -4 -5 -6 -6 -7 -7 -7 -7 -6 -6 -6 -6 -6 -6 -6 -6 -6 -6 -6 -6 -6 -6 -6
2 2 2 2 2 2 2 2 2 2 2 2 2 2 1 1 1 1 1 1 1 0 0 -0 -0 -1 -1 -1 -1 -1 -1 -1 -1 -2 -2 -2 -2 -2 -3 -3 -3 -3 -4 -4 -4 -5 -6 -6 -7 -7 -7 -7 -7 -7 -7 -7 -7 -7 -7 -7 -7 -7 -7 -6 -6 -6 -6 -6 -6
2 2 2 2 2 2 2 2 2 2 1 1 1 1 1 1 1 0 0 0 -0 -0 -0 -1 -1 -1 -1 -1 -1 -1 -2 -2 -2 -2 -3 -3 -3 -3 -4 -4 -4 -5 -5 -5 -5 -6 -7 -7 -7 -7 -7 -7 -7 -7 -8 -8 -8 -8 -8 -8 -8 -8 -7 -7 -7 -6 -6 -6 -6
1 1 1 1 1 1 1 1 1 1 1 1 1 1 0 0 -0 -0 -0 -1 -1 -1 -1 -1 -2 -2 -2 -2 -2 -2 -2 -3 -3 -3 -3 -4 -4 -5 -5 -5 -6 -6 -6 -6 -6 -7 -7 -7 -7 -7 -7 -7 -7 -7 -8 -8 -8 -8 -8 -8 -8 -8 -8 -8 -7 -7 -7 -7 -7
1 1 1 1 1 1 1 1 1 1 0 0 0 0 -0 -0 -1 -1 -1 -1 -1 -1 -2 -2 -2 -2 -3 -3 -3 -3 -3 -4 -4 -4 -4 -5 -5 -6 -6 -6 -6 -7 -7 -7 -7 -7 -7 -7 -7 -7 -7 -7 -7 -7 -8 -8 -8 -8 -8 -9 -9 -9 -8 -8 -8 -7 -7 -7 -7
Height
1448 1449 1449 1450 1452 1452 1452 1452 1453 1454 1455 1456 1457 1458 1460 1460 1461 1462 1463 1463 1464 1465 1466 1467 1468 1469 1469 1470 1471 1472 1473 1473 1473 1474 1474 1474 1474 1474 1474 1474 1473 1473 1473 1473 1474 1474 1474 1474 1474 1474 1473 1473 1472 1472 1471 1471 1470 1470 1470 1470 1470 1470 1470 1470 1469 1468 1468 1467 1467
1448 1448 1449 1450 1450 1450 1450 1451 1452 1453 1455 1456 1457 1458 1458 1459 1460 1461 1462 1463 1463 1464 1465 1466 1467 1468 1469 1470 1470 1471 1472 1472 1472 1473 1473 1473 1472 1472 1472 1472 1472 1472 1472 1472 1472 1472 1472 1472 1472 1472 1471 1471 1470 1470 1469 1468 1468 1468 1468 1468 1468 1468 1468 1467 1467 1466 1466 1466 1465
1446 1448 1449 1449 1449 1449 1449 1451 1452 1453 1454 1455 1456 1457 1458 1458 1459 1460 1462 1462 1463 1464 1465 1465 1466 1467 1468 1469 1470 1470 1470 1471 1471 1471 1471 1471 1471 1470 1470 1470 1470 1470 1470 1471 1471 1471 1470 1470 1470 1469 1469 1468 1468 1468 1467 1466 1466 1465 1465 1465 1465 1465 1465 1465 1464 1464 1463 1463 1463
1445 1447 1448 1449 1448 1448 1449 1450 1452 1453 1454 1455 1456 1457 1457 1458 1459 1460 1461 1462 1462 1463 1464 1465 1466 1467 1468 1468 1469 1469 1469 1469 1469 1469 1469 1469 1469 1468 1468 1468 1468 1468 1468 1469 1469 1468 1468 1468 1467 1467 1466 1466 1465 1465 1464 1464 1463 1463 1463 1463 1463 1462 1462 1462 1462 1461 1461 1460 1460
1444 1445 1446 1447 1448 1448 1449 1450 1451 1452 1453 1454 1455 1456 1457 1457 1458 1459 1460 1461 1462 1463 1463 1464 1465 1466 1467 1467 1468 1468 1468 1468 1468 1468 1468 1467 1467 1467 1467 1467 1467 1467 1467 1467 1467 1466 1466 1465 1465 1464 1464 1463 1463 1463 1463 1462 1462 1461 1461 1461 1460 1460 1460 1459 1459 1458 1458 1458 1457
1443 1444 1445 1447 1447 1448 1449 1450 1451 1452 1453 1453 1455 1456 1457 1457 1458 1459 1460 1460 1461 1462 1463 1463 1464 1465 1466 1466 1466 1467 1467 1467 1466 1466 1466 1466 1466 1466 1467 1467 1467 1466 1465 1465 1464 1464 1463 1463 1463 1462 1462 1462 1462 1461 1461 1461 1460 1460 1459 1459 1459 1458 1458 1458 1457 1456 1456 1455 1455
1443 1444 1445 1446 1447 1448 1448 1449 1450 1451 1452 1453 1454 1455 1456 1457 1457 1458 1459 1460 1461 1461 1462 1463 1463 1464 1464 1465 1465 1465 1465 1465 1465 1465 1465 1465 1465 1466 1466 1466 1465 1464 1463 1463 1463 1463 1462 1462 1462 1461 1461 1461 1461 1460 1460 1460 1459 1459 1458 1458 1458 1457 1457 1457 1456 1456 1455 1455 1454
1443 1444 1445 1446 1446 1447 1448 1449 1449 1450 1451 1452 1453 1454 1455 1456 1457 1458 1459 1459 1460 1460 1461 1462 1463 1463 1463 1463 1463 1463 1463 1464 1464 1464 1464 1465 1465 1465 1464 1463 1463 1463 1462 1462 1462 1462 1462 1462 1461 1461 1461 1461 1461 1460 1460 1459 1459 1458 1458 1458 1457 1457 1457 1456 1456 1456 1455 1455 1455
1443 1444 1445 1446 1446 1447 1448 1448 1449 1450 1450 1451 1453 1454 1455 1456 1457 1457 1458 1458 1459 1459 1460 1461 1462 1462 1462 1462 1463 1463 1463 1463 1463 1464 1464 1464 1463 1463 1462 1462 1462 1462 1463 1463 1463 1462 1462 1462 1462 1461 1461 1461 1461 1460 1460 1459 1459 1458 1458 1458 1457 1457 1456 1456 1456 1455 1455 1455 1455
1443 1444 1445 1446 1446 1447 1448 1448 1449 1449 1450 1451 1453 1454 1455 1456 1456 1457 1457 1458 1458 1459 1459 1460 1461 1461 1461 1461 1462 1462 1462 1463 1463 1463 1462 1462 1462 1461 1461 1462 1462 1463 1463 1463 1463 1462 1462 1462 1462 1461 1461 1461 1460 1460 1459 1459 1458 1458 1458 1457 1457 1456 1456 1455 1455 1455 1454 1454 1454
1443 1444 1444 1445 1446 1447 1448 1448 1448 1449 1450 1451 1453 1454 1455 1455 1455 1455 1456 1457 1457 1458 1458 1459 1460 1460 1460 1461 1461 1461 1461 1461 1461 1461 1461 1461 1461 1461 1461 1462 1462 1463 1463 1462 1462 1462 1462 1461 1461 1461 1460 1460 1459 1459 1458 1458 1458 1457 1457 1456 1456 1455 1455 1454 1454 1453 1453 1453 1453
1443 1444 1444 1445 1446 1447 1447 1448 1449 1449 1450 1451 1452 1453 1454 1453 1454 1454 1455 1456 1457 1457 1458 1458 1459 1459 1460 1460 1460 1460 1460 1460 1460 1460 1460 1460 1461 1461 1462 1462 1462 1462 1462 1462 1462 1461 1461 1461 1460 1460 1459 1459 1459 1458 1458 1457 1457 1456 1456 1455 1454 1454 1453 1453 1453 1452 1452 1451 1451
1442 1443 1444 1445 1446 1446 1447 1448 1449 1450 1450 1450 1452 1453 1453 1453 1453 1453 1454 1455 1456 1456 1457 1458 1458 1459 1459 1459 1459 1460 1460 1460 1460 1460 1460 1461 1461 1462 1462 1462 1462 1462 1461 1461 1461 1461 1460 1460 1460 1459 1459 1458 1458 1458 1457 1457 1456 1456 1455 1454 1454 1453 1453 1452 1451 1451 1450 1450 1449
1442 1443 1444 1445 1445 1446 1447 1448 1449 1449 1449 1450 1451 1451 1452 1452 1453 1453 1454 1454 1455 1456 1456 1457 1458 1458 1459 1459 1459 1460 1460 1460 1460 1460 1461 1461 1461 1461 1461 1461 1461 1461 1461 1461 1460 1460 1460 1459 1459 1458 1458 1458 1457 1457 1457 1456 1455 1455 1454 1453 1453 1452 1452 1451 1450 1450 1449 1449 1448
1442 1443 1444 1445 1445 1446 1447 1448 1449 1449 1449 1449 1450 1450 1451 1451 1452 1453 1453 1454 1455 1456 1456 1457 1457 1458 1458 1459 1459 1459 1460 1460 1460 1460 1461 1461 1460 1460 1460 1460 1460 1460 1460 1460 1460 1460 1459 1459 1458 1458 1457 1457 1456 1456 1456 1455 1455 1454 1453 1453 1452 1452 1451 1450 1449 1449 1448 1448 1448
1443 1443 1444 1445 1446 1446 1447 1448 1448 1448 1448 1448 1449 1450 1451 1451 1452 1453 1453 1454 1455 1456 1456 1457 1458 1458 1458 1459 1459 1459 1460 1460 1460 1460 1460 1460 1460 1460 1460 1460 1460 1460 1460 1460 1459 1459 1459 1458 1458 1457 1457 1456 1456 1455 1454 1454 1453 1453 1453 1452 1452 1451 1450 1449 1449 1448 1448 1447 1447
1443 1444 1445 1445 1446 1447 1447 1448 1448 1448 1448 1449 1449 1450 1451 1451 1452 1453 1454 1455 1456 1456 1457 1457 1458 1458 1458 1459 1459 1460 1460 1460 1460 1459 1459 1459 1459 1459 1459 1459 1459 1459 1459 1459 1458 1458 1458 1457 1457 1456 1456 1455 1455 1454 1454 1453 1453 1452 1452 1451 1451 1450 1449 1449 1448 1448 1447 1446 1446
1444 1445 1445 1446 1446 1447 1447 1447 1448 1448 1449 1449 1450 1450 1451 1452 1453 1454 1455 1456 1456 1457 1457 1457 1457 1458 1458 1459 1459 1459 1459 1459 1459 1459 1459 1459 1459 1459 1459 1459 1459 1459 1458 1458 1458 1457 1457 1456 1456 1455 1455 1454 1454 1453 1453 1452 1452 1451 1451 1450 1450 1449 1449 1448 1447 1447 1446 1445 1445
1445 1445 1446 1446 1446 1447 1447 1447 1448 1448 1449 1449 1450 1451 1452 1453 1453 1454 1455 1456 1456 1456 1457 1457 1457 1458 1458 1459 1459 1459 1459 1459 1459 1459 1459 1459 1459 1459 1459 1459 1458 1458 1458 1457 1457 1456 1456 1455 1455 1454 1454 1453 1453 1453 1452 1452 1451 1451 1450 1450 1449 1448 1448 1447 1447 1446 1445 1445 1444
1445 1445 1446 1446 1446 1446 1447 1447 1448 1448 1449 1450 1450 1451 1452 1453 1454 1455 1456 1456 1456 1456 1456 1457 1457 1458 1459 1459 1459 1459 1458 1458 1458 1458 1458 1458 1458 1458 1458 1458 1458 1458 1457 1457 1456 1456 1455 1455 1454 1454 1453 1453 1453 1452 1451 1451 1450 1450 1449 1449 1448 1448 1447 1446 1446 1445 1444 1444 1443
1444 1445 1446 1446 1447 1447 1448 1448 1449 1449 1450 1451 1451 1452 1453 1454 1455 1455 1455 1456 1456 1456 1456 1457 1458 1458 1458 1458 1458 1458 1458 1458 1458 1458 1458 1458 1458 1458 1457 1457 1457 1457 1456 1456 1456 1455 1455 1454 1453 1453 1452 1452 1451 1451 1450 1450 1449 1449 1448 1448 1447 1447 1446 1445 1444 1444 1443 1443 1442
1445 1446 1447 1448 1448 1449 1449 1450 1451 1451 1452 1452 1452 1453 1454 1454 1455 1455 1455 1455 1456 1456 1457 1457 1458 1458 1458 1458 1458 1457 1457 1457 1457 1457 1457 1457 1457 1457 1457 1456 1456 1456 1455 1455 1455 1454 1454 1453 1452 1452 1451 1451 1450 1450 1449 1448 1448 1448 1447 1446 1446 1445 1444 1444 1443 1443 1442 1441 1441
1447 1448 1449 1449 1450 1450 1451 1452 1453 1453 1453 1453 1453 1454 1455 1455 1455 1455 1455 1456 1456 1457 1457 1458 1458 1458 1458 1457 1457 1457 1457 1457 1457 1457 1457 1457 1456 1456 1456 1455 1455 1455 1455 1454 1454 1453 1453 1452 1451 1451 1450 1450 1449 1448 1448 1447 1447 1446 1445 1445 1444 1443 1443 1442 1442 1441 1440 1440 1439
1448 1450 1451 1451 1451 1452 1453 1453 1453 1454 1454 1454 1455 1455 1455 1455 1456 1456 1456 1456 1457 1457 1457 1458 1458 1458 1457 1457 1457 1457 1457 1457 1456 1456 1456 1456 1456 1455 1455 1455 1455 1454 1454 1453 1453 1452 1452 1451 1450 1449 1449 1448 1448 1447 1447 1446 1445 1445 1444 1443 1443 1442 1441 1441 1440 1439 1438 1438 1437
1450 1451 1452 1452 1452 1453 1453 1454 1454 1454 1455 1455 1455 1456 1456 1456 1456 1456 1456 1457 1457 1457 1457 1457 1457 1457 1457 1456 1456 1456 1456 1456 1456 1455 1455 1455 1455 1454 1454 1454 1454 1453 1453 1453 1452 1451 1450 1449 1448 1448 1447 1447 1446 1446 1445 1445 1444 1443 1443 1442 1441 1440 1439 1439 1438 1438 1437 1436 1435
1452 1452 1452 1453 1453 1454 1454 1455 1455 1455 1456 1456 1456 1456 1456 1456 1456 1456 1457 1457 1457 1457 1457 1457 1456 1456 1456 1456 1456 1456 1456 1455 1455 1455 1454 1454 1454 1454 1453 1453 1453 1452 1452 1451 1451 1450 1449 1448 1447 1446 1446 1445 1444 1444 1444 1443 1443 1442 1441 1440 1439 1438 1438 1437 1436 1436 1435 1434 1433
1453 1453 1453 1454 1454 1455 1455 1455 1456 1456 1456 1456 1456 1456 1456 1456 1456 1456 1457 1457 1456 1456 1456 1456 1456 1456 1455 1455 1455 1455 1455 1455 1454 1454 1453 1453 1453 1453 1453 1452 1451 1451 1450 1450 1449 1448 1447 1447 1446 1445 1444 1443 1443 1442 1442 1441 1441 1440 1439 1438 1438 1437 1436 1435 1434 1433 1433 1432 1432
1453 1454 1454 1455 1455 1455 1456 1456 1456 1456 1456 1456 1456 1456 1456 1456 1456 1456 1456 1456 1456 1456 1456 1455 1455 1455 1455 1455 1455 1454 1454 1454 1453 1453 1453 1453 1452 1452 1452 1451 1450 1449 1449 1448 1447 1447 1446 1445 1444 1443 1443 1442 1441 1440 1440 1439 1439 1438 1437 1436 1436 1435 1434 1433 1432 1432 1431 1430 1429
1454 1455 1455 1455 1456 1456 1456 1456 1456 1456 1456 1456 1456 1456 1456 1456 1456 1456 1456 1456 1455 1455 1455 1455 1455 1455 1454 1454 1454 1453 1453 1453 1453 1453 1452 1452 1452 1451 1450 1449 1449 1448 1447 1447 1446 1445 1444 1443 1443 1442 1441 1440 1439 1438 1438 1437 1437 1436 1435 1434 1434 1433 1432 1431 1430 1430 1429 1428 1428
1455 1455 1456 1456 1456 1456 1456 1456 1456 1456 1456 1456 1456 1456 1456 1456 1456 1456 1455 1455 1455 1455 1455 1455 1454 1454 1454 1453 1453 1453 1452 1452 1452 1452 1451 1451 1450 1450 1449 1448 1447 1446 1446 1445 1444 1443 1442 1442 1441 1440 1439 1438 1437 1436 1436 1435 1435 1434 1433 1433 1432 1431 1430 1429 1429 1428 1427 1426 1425
1456 1456 1456 1456 1456 1456 1456 1456 1456 1457 1457 1456 1456 1456 1456 1456 1456 1455 1455 1455 1455 1455 1455 1454 1454 1453 1453 1453 1452 1452 1452 1451 1451 1451 1450 1450 1449 1448 1448 1447 1446 1445 1444 1443 1443 1442 1441 1440 1439 1438 1438 1437 1436 1435 1434 1434 1433 1432 1432 1431 1430 1429 1428 1428 1427 1426 1425 1424 1423
1456 1456 1456 1456 1456 1456 1457 1457 1457 1457 1456 1456 1456 1456 1456 1456 1455 1455 1455 1455 1455 1454 1454 1453 1453 1453 1452 1452 1452 1451 1451 1450 1450 1449 1449 1448 1448 1447 1446 1445 1444 1443 1442 1442 1441 1440 1439 1438 1438 1437 1436 1435 1434 1433 1433 1432 1431 1431 1430 1429 1428 1428 1427 1426 1425 1424 1423 1423 1422
1456 1456 1456 1456 1456 1456 1456 1456 1456 1456 1456 1456 1456 1455 1455 1455 1455 1454 1454 1454 1454 1453 1453 1452 1452 1451 1451 1451 1451 1450 1450 1449 1449 1448 1447 1447 1446 1445 1444 1443 1442 1442 1441 1440 1439 1439 1438 1437 1436 1435 1434 1433 1432 1431 1431 1430 1430 1429 1428 1427 1427 1426 1425 1424 1423 1423 1422 1421 1420
1457 1457 1457 1456 1456 1456 1456 1456 1456 1456 1456 1455 1455 1455 1455 1454 1454 1454 1453 1453 1453 1452 1452 1451 1451 1451 1450 1450 1450 1449 1449 1448 1448 1447 1446 1445 1444 1443 1443 1442 1441 1440 1439 1439 1438 1437 1437 1436 1435 1434 1433 1431 1430 1430 1429 1429 1428 1428 1427 1426 1425 1424 1423 1423 1422 1421 1420 1419 1419
1458 1458 1457 1457 1457 1457 1457 1457 1456 1456 1456 1455 1455 1455 1454 1454 1454 1453 1453 1453 1452 1452 1451 1451 1451 1450 1450 1449 1449 1448 1448 1447 1446 1445 1444 1443 1443 1442 1441 1440 1439 1438 1438 1438 1437 1436 1435 1434 1433 1433 1431 1430 1429 1428 1428 1428 1427 1426 1425 1424 1423 1423 1422 1421 1420 1419 1419 1418 1418
1458 1458 1458 1458 1458 1457 1457 1457 1457 1456 1456 1455 1455 1455 1454 1454 1453 1453 1453 1452 1452 1451 1451 1450 1450 1450 1449 1448 1448 1447 1446 1445 1444 1444 1443 1442 1441 1440 1439 1439 1438 1437 1437 1436 1435 1435 1434 1433 1433 1432 1430 1429 1428 1427 1426 1426 1425 1424 1423 1423 1422 1421 1420 1419 1419 1418 1418 1417 1416
1459 1458 1458 1458 1458 1458 1457 1457 1456 1456 1456 1455 1455 1454 1454 1453 1453 1452 1452 1452 1451 1451 1450 1450 1449 1448 1448 1447 1446 1445 1444 1444 1443 1442 1441 1440 1440 1439 1438 1437 1436 1436 1435 1435 1434 1433 1433 1432 1432 1431 1430 1428 1427 1426 1425 1424 1424 1423 1422 1421 1421 1420 1419 1418 1418 1417 1416 1416 1415
1459 1458 1458 1458 1458 1457 1457 1457 1456 1456 1455 1455 1454 1454 1453 1453 1452 1452 1451 1451 1450 1450 1449 1448 1448 1447 1447 1446 1445 1444 1443 1443 1442 1441 1440 1439 1438 1438 1437 1436 1435 1434 1434 1433 1433 1433 1432 1432 1432 1431 1430 1428 1427 1425 1424 1423 1423 1422 1421 1420 1419 1419 1418 1417 1417 1416 1415 1414 1414
1459 1459 1458 1458 1458 1457 1457 1456 1456 1455 1455 1454 1454 1453 1453 1452 1452 1451 1450 1450 1449 1449 1448 1448 1447 1446 1445 1445 1444 1443 1442 1442 1441 1440 1439 1438 1437 1437 1436 1435 1434 1433 1433 1433 1433 1432 1432 1432 1431 1431 1430 1428 1427 1425 1424 1423 1422 1421 1420 1419 1419 1418 1417 1417 1416 1415 1414 1413 1413
1459 1459 1458 1458 1458 1457 1456 1456 1455 1455 1454 1454 1453 1453 1452 1452 1451 1450 1450 1449 1448 1448 1447 1447 1446 1445 1444 1443 1443 1442 1441 1441 1440 1439 1438 1438 1437 1436 1435 1434 1433 1433 1432 1432 1432 1432 1431 1431 1431 1430 1429 1428 1427 1425 1424 1423 1422 1421 1420 1419 1418 1418 1417 1416 1415 1414 1414 1413 1413
1459 1458 1458 1458 1457 1457 1456 1455 1455 1454 1454 1453 1453 1452 1452 1451 1451 1450 1449 1449 1448 1447 1447 1446 1445 1444 1443 1443 1442 1441 1440 1439 1439 1438 1438 1437 1436 1435 1434 1434 1433 1432 1432 1431 1431 1431 1430 1430 1430 1429 1428 1428 1427 1425 1423 1422 1421 1420 1419 1419 1418 1417 1416 1415 1414 1414 1413 1413 1412
Wind_Speed
25 25 24 25 25 24 24 25 23 22 22 22 23 22 22 22 22 21 20 19 18 18 17 17 17 17 17 17 16 15 15 14 14 14 14 15 16 17 19 20 20 21 21 22 23 24 25 26 27 28 29 30 30 31 32 33 33 34 35 34 33 33 33 34 35 35 35 34 34
25 25 22 20 19 19 20 21 21 21 22 22 23 23 23 23 23 22 21 20 19 18 18 18 18 18 18 17 17 16 15 15 15 16 16 17 18 19 20 21 22 22 23 24 25 26 27 28 28 28 29 30 31 33 34 35 35 36 37 36 36 35 35 36 37 37 37 36 34
24 24 22 18 15 16 17 19 20 21 21 22 23 23 24 24 23 22 21 20 20 19 19 19 19 19 18 18 17 17 16 16 17 17 18 18 19 20 21 23 24 24 25 25 26 27 27 28 28 28 29 29 30 32 33 33 34 33 33 33 33 34 34 35 36 36 36 36 35
24 23 21 18 17 16 16 18 20 20 20 21 22 23 24 24 23 22 21 21 21 20 20 20 19 19 19 18 18 18 18 18 18 18 19 20 21 22 23 24 25 26 26 26 26 26 27 27 27 27 27 27 28 28 28 29 30 29 28 29 30 31 30 30 32 33 34 34 35
22 22 21 19 17 16 17 18 19 20 20 20 21 22 23 23 22 22 21 21 21 21 20 20 19 19 19 18 18 18 18 18 18 19 20 21 23 23 24 25 25 26 26 26 26 26 25 25 24 24 24 25 25 24 24 25 26 26 27 28 29 29 30 30 31 31 32 33 34
21 22 22 21 19 18 17 18 19 19 20 20 21 22 22 22 22 21 21 21 21 21 20 19 19 18 18 18 17 17 17 18 19 20 21 22 23 23 23 24 25 26 26 26 25 24 22 22 21 21 21 21 21 21 22 22 23 23 24 24 24 24 24 25 25 25 25 25 25
22 22 23 22 21 19 18 19 19 20 20 21 22 22 21 22 21 21 21 21 21 20 19 18 18 17 16 16 16 16 18 19 20 21 22 22 22 23 24 24 24 24 24 23 22 21 19 19 18 17 16 16 16 16 16 16 16 16 16 15 16 15 15 15 14 14 14 13 14
22 22 23 23 22 20 19 19 20 20 20 21 21 21 21 21 21 20 20 20 20 19 18 17 16 15 15 15 16 18 20 21 22 21 21 22 22 23 23 22 21 20 19 17 17 16 15 14 13 12 11 10 9 9 8 8 8 8 8 8 7 7 6 6 5 4 4 4 4
21 22 22 21 21 20 19 19 20 20 20 20 20 20 20 20 19 19 19 19 18 17 16 15 15 14 15 16 19 21 22 22 21 20 20 20 20 19 18 17 15 13 12 11 10 9 9 8 8 7 6 5 5 5 5 5 5 6 6 6 6 5 5 5 4 4 4 4 5
21 20 20 20 20 20 19 20 20 19 19 18 19 19 18 16 16 16 17 17 16 15 14 14 14 15 17 19 20 20 20 19 18 17 17 16 15 13 12 10 9 8 7 6 6 5 5 5 4 5 5 6 7 7 7 7 7 7 8 8 8 9 9 9 8 8 8 8 8
21 21 20 20 20 20 20 20 19 18 17 17 17 16 15 12 12 13 13 14 13 13 13 14 16 17 18 18 17 16 14 13 12 11 11 10 10 9 8 7 7 6 6 5 5 4 5 6 7 8 9 9 10 10 10 11 11 11 11 11 11 12 12 12 12 12 12 12 12
21 22 21 20 21 21 21 20 18 17 16 16 15 14 12 9 9 10 10 10 10 12 13 15 16 16 15 13 11 9 8 6 6 6 7 8 8 7 7 7 7 6 6 5 5 6 7 8 9 10 11 11 11 12 12 13 13 13 13 14 14 15 15 15 15 15 16 16 16
21 21 21 20 21 21 21 20 18 17 16 15 14 12 9 7 7 8 8 8 9 11 12 12 11 10 8 6 4 3 2 2 4 5 6 6 6 6 6 5 5 5 5 5 6 7 8 9 9 10 10 10 10 11 11 12 12 13 13 14 15 16 16 17 17 18 18 18 19
19 20 20 20 20 20 20 19 18 16 15 13 11 9 7 6 6 6 6 7 8 8 7 6 4 3 1 1 1 2 3 4 5 5 5 5 4 4 3 3 4 5 5 6 7 7 8 8 9 9 8 8 9 9 10 10 11 11 12 12 13 14 15 16 17 18 19 19 20
16 18 19 19 19 18 18 17 15 13 11 9 9 7 5 3 3 4 5 5 4 3 2 1 2 2 3 2 3 3 4 5 5 5 4 2 2 2 3 4 5 5 6 6 7 7 8 8 8 8 9 9 9 9 10 10 11 11 11 12 12 12 12 13 14 15 16 17 18
13 15 16 16 15 14 13 12 11 9 8 7 6 4 2 2 2 2 2 2 2 3 4 5 5 4 3 3 4 4 4 4 3 2 1 2 2 3 4 4 5 6 7 7 8 8 9 9 9 9 10 10 10 10 11 11 11 11 12 12 12 12 12 12 12 13 13 14 14
13 13 13 13 12 11 10 10 9 8 7 7 5 4 3 3 4 6 6 6 7 7 7 7 5 4 4 4 4 4 3 2 1 1 2 2 3 4 5 6 7 7 8 9 9 10 10 10 10 10 11 11 11 11 11 12 12 12 12 12 12 12 12 13 13 13 13 13 13
14 13 12 11 10 10 10 10 10 10 11 10 9 8 7 8 9 10 9 9 9 8 8 6 5 4 4 3 3 2 2 1 1 2 2 3 4 5 6 7 8 8 9 9 9 10 10 10 10 11 11 11 11 11 11 12 12 12 12 12 12 12 12 13 13 13 13 13 14
14 12 11 11 11 12 13 14 14 15 15 14 13 12 12 12 12 11 11 10 9 8 7 6 5 4 3 2 1 1 1 1 2 3 4 5 6 7 7 8 8 9 9 9 9 9 10 10 10 10 11 11 11 11 11 12 12 12 12 12 12 12 12 12 12 13 13 13 14
14 13 14 15 15 16 16 17 18 18 17 17 16 15 15 13 12 11 10 9 8 7 6 5 4 3 2 1 1 1 2 3 4 5 6 6 7 7 8 8 9 9 9 9 9 9 10 10 10 10 11 11 11 12 12 12 12 12 12 12 13 13 13 13 13 13 14 14 14
16 17 18 18 18 18 18 18 18 17 17 16 16 15 14 13 11 10 9 8 7 6 5 4 3 2 1 1 2 3 4 5 6 6 7 8 8 8 9 9 9 9 10 10 10 10 10 10 11 11 11 12 12 13 13 13 13 14 14 14 14 14 15 15 15 15 15 15 16
19 19 19 19 19 18 17 17 16 16 15 15 14 13 12 11 10 9 8 7 6 5 4 3 2 2 2 2 3 4 5 6 6 7 8 8 8 8 9 9 10 10 10 10 10 11 11 11 12 12 12 13 13 14 14 15 15 15 16 16 16 16 16 17 17 17 17 17 18
21 21 20 20 19 18 17 16 15 14 14 13 12 11 10 9 8 7 6 5 4 3 3 2 1 1 2 3 3 4 5 6 7 7 7 8 8 8 9 9 10 10 11 11 11 12 12 12 13 13 13 13 14 14 15 15 16 17 17 17 18 18 18 18 18 19 19 19 19
23 22 20 19 19 17 16 15 14 13 12 11 11 10 9 8 7 6 5 4 3 2 1 0 1 2 2 3 4 5 5 6 6 7 7 7 8 8 9 9 10 10 11 12 12 13 13 14 14 14 15 15 15 15 16 16 17 18 18 18 19 19 19 19 19 19 19 20 20
22 20 19 18 17 16 14 13 12 11 11 10 9 8 7 6 6 5 4 3 2 2 1 1 2 3 3 4 5 5 6 6 7 7 8 8 9 9 10 10 11 11 12 12 13 14 14 15 16 16 17 17 17 17 17 18 18 19 19 20 20 20 20 20 20 20 20 20 21
19 18 17 16 15 14 13 12 11 10 9 8 8 7 6 6 5 4 4 3 2 2 2 2 3 3 4 5 5 6 6 7 7 8 9 9 10 11 11 12 12 13 13 14 14 15 16 16 17 18 19 19 19 19 19 19 19 19 20 20 21 21 21 22 21 21 21 21 21
17 17 16 15 13 13 12 11 10 10 9 8 7 7 6 6 5 4 4 3 3 3 3 3 4 4 5 6 6 7 7 8 9 9 10 11 11 12 13 13 14 14 15 15 16 16 17 18 18 19 20 21 21 21 21 20 20 20 21 21 21 22 22 22 22 22 22 21 21
16 16 14 13 12 12 11 10 10 9 9 8 7 7 6 6 5 5 4 4 4 4 4 4 5 6 6 7 7 8 9 9 10 10 11 12 13 13 14 14 15 15 16 16 17 18 18 19 19 20 21 21 22 22 22 21 21 21 21 21 21 22 22 22 23 23 22 22 22
16 15 13 13 12 11 11 10 10 9 9 8 8 7 7 6 5 5 5 5 5 5 6 6 7 7 8 8 9 10 10 11 11 12 12 13 13 14 14 15 15 16 16 17 17 18 19 19 20 20 21 21 22 22 22 22 22 22 22 22 22 22 22 22 22 22 22 22 22
15 14 13 12 12 11 10 10 10 9 9 8 7 7 6 6 6 6 6 6 6 7 7 8 8 9 9 10 10 11 12 12 13 13 13 14 14 14 15 15 16 16 17 17 17 18 18 19 19 20 20 21 22 22 22 22 22 22 22 22 21 21 21 21 21 21 21 21 21
15 14 13 12 11 11 10 10 9 8 8 7 6 6 5 5 6 6 7 7 7 8 8 9 9 10 11 11 12 12 13 13 13 14 14 14 14 15 15 16 16 17 17 17 17 18 18 19 19 19 20 20 21 22 22 22 21 21 21 21 21 21 21 20 20 20 20 20 20
14 13 12 12 11 11 10 9 8 8 7 6 6 6 6 6 6 7 7 8 8 9 9 10 10 11 11 12 12 12 13 13 14 14 14 15 15 15 16 16 17 17 17 17 17 18 18 18 19 19 19 20 21 21 21 21 21 21 20 20 20 20 20 19 19 19 19 18 18
13 12 11 11 11 10 10 9 8 8 7 7 7 7 7 7 8 8 8 9 9 10 10 11 11 12 12 12 13 13 13 14 14 15 15 15 16 16 16 17 17 17 18 18 18 18 18 18 18 18 18 19 21 21 21 20 20 20 20 19 19 19 19 18 18 18 17 17 16
11 10 10 9 9 9 9 9 9 8 8 8 8 9 9 9 9 9 10 10 11 11 12 12 13 13 13 14 14 14 14 15 15 15 16 16 16 17 17 17 18 18 18 18 18 18 18 18 17 17 18 19 20 21 20 20 20 19 19 19 18 18 17 17 17 16 16 15 15
9 8 8 8 7 7 7 7 7 8 8 8 8 9 9 9 10 10 11 11 11 12 12 13 13 13 14 14 15 15 15 16 16 16 17 17 17 17 17 18 18 18 18 17 17 17 17 16 16 16 17 19 20 21 20 20 19 19 18 18 17 17 16 15 15 14 14 14 14
8 7 7 6 6 6 6 6 7 7 7 8 8 9 9 10 10 11 11 11 12 12 12 13 13 14 14 14 15 16 16 16 17 17 17 18 18 18 18 18 18 18 17 17 16 16 15 14 14 14 16 18 20 21 20 20 19 18 18 17 16 15 14 13 13 13 13 13 13
7 7 6 6 6 6 6 6 7 7 8 8 9 9 10 10 11 11 12 12 12 13 13 14 14 14 15 15 16 16 17 17 17 17 18 18 18 18 18 18 17 17 16 16 15 14 13 13 12 13 15 17 19 21 21 21 20 19 18 16 15 13 13 12 12 11 11 12 12
7 7 7 7 7 7 7 7 8 8 9 9 10 10 11 11 12 12 13 13 13 14 14 14 15 15 15 16 16 17 17 17 17 17 17 17 17 17 17 16 16 16 15 14 12 11 11 11 11 12 13 16 18 20 21 22 21 20 18 17 15 15 14 14 13 12 11 11 10
8 8 8 8 8 8 9 9 9 10 10 11 11 12 12 12 13 14 14 15 15 15 15 15 15 15 16 16 16 16 17 17 17 16 16 16 16 16 15 14 14 13 12 11 10 9 9 10 10 11 12 14 16 18 20 21 21 20 18 17 17 17 17 16 15 15 14 13 12
9 9 9 10 10 10 11 11 11 12 12 12 13 13 13 14 14 14 15 15 15 15 15 15 15 15 16 16 16 16 16 16 16 16 15 15 14 14 13 11 10 10 10 9 8 8 8 9 9 11 12 14 15 17 18 19 19 19 18 17 17 18 18 18 17 17 16 15 14
11 11 11 11 12 12 12 13 13 13 13 14 14 14 14 14 15 15 15 15 15 15 15 15 15 15 15 15 15 15 15 15 15 15 14 13 12 11 9 8 8 8 8 8 7 7 8 8 9 10 11 13 14 15 17 18 18 18 18 17 17 18 18 19 19 18 17 16 14
Wind_Direction
212 212 210 207 206 208 209 207 203 200 199 199 199 199 197 194 192 194 200 206 210 214 218 223 227 230 232 233 234 235 237 238 238 238 240 244 249 254 259 264 268 271 273 274 275 276 277 277 277 275 272 269 266 265 264 264 264 264 264 266 266 266 268 270 271 272 270 266 262
214 215 215 209 206 207 208 206 202 199 199 200 201 200 198 195 196 201 207 210 213 216 219 222 225 227 228 229 230 230 230 230 231 234 238 243 251 259 266 273 278 281 281 280 280 280 281 281 280 278 275 271 268 265 264 265 265 266 267 268 267 267 266 267 269 271 272 271 267
213 216 219 215 209 208 207 203 200 199 200 201 204 204 201 198 200 204 208 211 213 215 216 218 221 222 224 225 226 228 230 232 236 241 246 254 263 271 278 282 285 286 286 286 286 286 286 285 284 281 277 273 270 268 267 268 268 268 269 270 269 268 267 266 266 267 268 268 267
211 213 215 214 212 210 207 202 200 201 203 204 205 205 203 199 200 203 206 208 210 212 213 215 217 219 222 225 228 232 237 243 249 255 262 269 276 282 285 287 288 289 290 291 292 292 291 290 288 286 284 281 279 277 276 274 272 270 269 268 268 267 265 262 261 261 262 262 263
209 210 213 214 212 211 209 206 206 207 209 208 205 203 200 198 199 202 204 206 207 209 211 213 216 219 223 228 234 240 248 255 262 268 274 278 282 284 287 289 290 292 294 296 297 297 297 295 293 292 290 289 288 284 280 276 272 268 265 263 262 261 258 255 253 252 253 254 255
208 210 214 217 215 212 211 210 212 215 215 210 205 200 197 195 197 199 201 204 206 208 210 214 218 223 229 236 243 251 259 266 272 276 279 281 282 284 286 289 292 296 299 301 302 302 301 298 295 291 288 285 281 276 271 266 260 256 253 251 249 247 244 240 239 238 238 237 237
208 210 214 217 217 215 213 214 217 220 219 212 206 203 201 198 198 200 203 205 207 209 213 218 223 231 239 247 255 263 268 272 275 277 279 280 282 284 288 293 298 302 304 305 304 302 298 293 286 279 273 266 258 254 252 249 244 241 239 236 234 230 226 221 220 218 215 214 212
210 213 216 218 218 216 215 216 220 222 220 215 211 212 212 208 205 205 207 210 211 215 220 226 234 242 251 259 263 266 269 272 274 277 279 282 287 292 298 303 307 308 306 302 298 292 286 279 269 258 249 243 239 241 245 245 244 242 239 234 231 226 222 219 218 214 212 216 218
211 216 219 220 219 217 217 218 220 221 220 217 217 218 218 216 213 211 211 214 217 223 229 237 246 255 261 263 263 264 266 270 275 282 288 294 301 306 309 310 308 302 295 288 281 273 264 256 247 243 245 252 266 279 286 287 286 281 274 269 272 275 277 278 282 285 288 290 292
211 216 221 222 219 218 218 219 220 218 216 215 217 220 220 218 215 214 215 219 225 232 240 249 257 262 264 264 264 266 270 277 286 296 304 309 312 312 308 299 287 273 260 255 250 246 245 247 257 269 281 289 296 299 300 299 296 293 290 287 287 286 285 285 284 283 283 284 284
209 216 222 222 217 216 217 219 219 216 212 211 215 219 221 219 215 217 222 229 235 242 250 256 261 264 266 268 271 276 284 294 304 310 313 312 308 300 286 266 247 234 232 236 244 257 272 285 293 298 300 300 300 300 300 300 298 297 295 294 292 290 288 286 285 284 283 284 284
205 213 219 218 214 212 215 217 218 215 212 211 216 222 225 227 225 229 236 244 250 253 255 258 262 266 271 277 285 293 301 308 310 308 303 298 289 274 256 240 235 237 245 260 277 291 300 305 305 304 303 302 302 301 301 301 301 300 299 298 297 296 295 294 293 292 292 292 293
200 207 210 210 209 209 211 213 214 214 212 212 218 226 234 241 241 246 255 263 265 264 263 263 267 274 283 290 297 298 288 280 283 283 278 267 253 240 235 239 249 264 282 295 303 307 307 303 299 296 295 296 296 296 297 299 300 301 301 301 301 301 301 301 301 301 301 301 301
196 199 201 203 205 208 210 212 214 213 212 210 217 228 241 249 253 260 270 276 276 276 275 278 280 281 271 224 207 220 245 260 262 254 242 231 226 230 246 269 288 301 307 308 305 298 290 283 281 282 285 287 289 290 292 294 297 299 301 302 302 303 303 304 304 305 305 305 305
196 197 198 201 203 205 208 209 210 209 207 207 217 227 238 250 261 267 272 277 279 278 269 205 163 163 170 185 210 235 245 245 236 225 219 223 247 280 298 307 308 305 301 295 289 283 278 277 278 281 284 288 290 292 293 295 297 299 301 302 303 303 303 303 303 303 303 303 304
201 199 198 199 201 203 204 204 200 197 196 198 205 208 211 233 232 220 203 180 166 157 156 158 162 170 185 207 224 229 226 220 214 220 251 301 310 310 305 300 292 287 284 284 284 285 286 288 290 292 294 296 297 298 299 300 300 300 301 301 302 302 302 301 301 300 300 300 301
209 206 203 203 205 207 206 200 190 179 171 168 163 162 170 176 168 160 155 154 155 157 159 161 167 179 195 208 211 206 197 196 214 266 292 295 292 287 280 276 275 277 281 286 290 293 296 298 300 302 303 304 305 305 305 305 304 304 303 302 302 302 302 301 301 301 301 301 301
211 210 210 208 204 198 191 182 171 160 154 150 151 155 160 158 155 154 153 154 154 155 157 161 169 177 183 185 186 183 180 200 245 268 274 276 275 274 272 273 276 281 285 290 295 299 302 304 305 307 308 308 308 308 308 308 307 307 306 305 304 304 303 303 303 303 303 303 303
204 202 197 189 182 176 169 162 155 150 147 148 151 152 152 150 150 151 151 150 149 149 150 151 155 160 164 168 176 200 241 269 279 282 283 283 281 282 282 284 287 290 294 297 299 302 303 304 305 306 307 307 307 307 307 307 306 306 305 305 305 304 303 303 303 302 302 302 301
180 174 165 159 158 157 154 149 145 143 142 143 144 145 143 142 143 144 144 142 142 143 144 142 144 152 167 195 250 283 293 296 297 297 295 294 294 294 295 296 297 299 300 301 302 302 302 302 302 303 303 303 303 303 303 302 302 302 302 301 301 301 300 299 299 298 298 297 296
149 146 143 140 141 141 141 138 134 133 132 132 132 132 132 133 135 136 136 134 136 140 144 149 158 176 207 250 279 291 297 299 299 299 299 300 301 302 303 303 303 304 303 303 303 303 303 303 304 304 304 303 303 303 302 302 301 301 301 300 300 299 299 298 298 297 296 296 296
133 132 128 124 124 125 124 122 120 119 119 120 120 121 123 126 128 128 128 129 133 140 149 162 180 208 244 271 284 291 293 294 295 296 298 301 304 305 306 307 307 307 306 306 305 306 306 307 306 306 305 305 305 304 304 304 304 304 303 303 302 302 301 301 300 300 299 299 298
123 120 115 112 112 112 112 112 112 113 113 113 114 116 118 119 120 120 121 125 131 138 148 165 200 259 284 291 294 294 295 295 296 297 299 302 305 306 307 308 308 307 307 306 306 307 307 307 306 305 305 305 305 305 305 305 305 305 304 303 303 303 303 303 302 302 301 300 300
114 111 109 108 108 109 110 111 112 112 111 110 110 111 112 112 111 111 113 114 117 119 115 78 319 314 313 309 305 303 301 301 301 302 303 304 305 305 304 303 303 303 303 304 305 306 306 305 305 304 303 303 303 303 303 303 303 303 303 303 302 302 302 302 302 302 301 301 300
108 108 108 108 108 109 109 110 110 108 107 105 105 104 103 102 100 97 95 92 89 73 42 8 346 332 323 317 312 308 306 305 306 306 306 305 304 303 302 301 301 301 302 303 304 305 305 305 304 303 302 301 301 301 301 301 301 301 301 301 301 301 300 300 300 300 300 300 299
106 106 106 106 106 106 106 105 104 102 100 98 97 95 92 89 86 82 77 72 62 43 19 1 345 335 326 321 316 313 310 310 309 309 308 308 306 305 304 304 303 303 303 304 304 304 304 304 303 303 302 301 300 300 300 299 299 299 300 300 300 299 299 299 298 298 297 298 298
103 102 102 102 103 102 100 98 96 94 92 90 87 83 79 76 72 68 61 52 38 23 7 352 342 334 328 323 318 315 313 312 311 311 310 309 308 307 306 306 305 305 305 305 304 304 303 303 303 302 302 301 300 300 300 299 299 299 299 299 298 298 298 298 297 297 296 296 296
96 95 95 96 95 93 91 90 88 85 81 77 73 69 65 60 55 48 40 30 20 9 357 348 340 333 327 321 318 315 314 313 312 310 309 307 306 305 305 305 305 305 305 305 305 304 304 303 303 302 302 302 301 300 300 300 300 300 299 299 298 298 297 297 296 296 295 295 294
89 89 88 87 86 85 83 80 77 74 69 65 61 56 50 44 37 29 21 12 3 356 349 342 335 329 324 320 317 316 314 312 310 308 306 305 305 304 304 304 304 304 305 306 305 305 305 304 304 304 303 303 302 301 301 301 301 301 300 299 298 298 297 296 295 295 294 293 293
86 85 83 82 80 78 75 72 69 65 61 57 52 46 38 30 21 12 4 357 350 344 339 333 328 323 320 318 317 315 312 310 308 307 306 305 306 306 306 306 305 305 305 306 306 305 305 305 305 305 304 304 302 302 302 302 302 302 301 300 299 298 297 296 295 294 293 292 292
81 81 80 79 77 74 71 67 64 61 57 51 45 36 25 15 6 358 351 345 340 334 328 324 322 320 318 316 315 313 311 309 309 308 308 308 308 308 308 307 307 306 306 307 307 306 306 306 305 306 305 304 303 302 303 303 303 303 302 301 300 299 298 297 295 294 293 292 291
71 70 70 69 68 66 64 61 58 54 47 40 31 21 11 3 356 349 343 337 332 327 324 321 320 318 317 315 314 313 312 311 311 311 311 311 311 311 310 309 308 308 308 308 308 307 307 307 307 307 306 304 303 303 304 305 305 304 303 303 302 300 299 298 297 295 294 292 291
60 58 55 54 53 51 48 45 40 34 27 19 12 6 1 356 351 345 339 335 331 328 326 324 323 321 320 318 317 316 315 314 313 313 313 313 313 312 311 310 309 308 309 309 309 308 308 308 308 308 307 305 304 305 306 307 307 306 305 304 303 301 300 299 297 296 294 293 291
57 53 48 44 40 36 32 27 22 16 10 4 359 355 351 348 344 340 337 334 331 329 327 326 325 323 322 320 318 317 316 315 314 314 314 313 313 312 312 311 310 309 310 310 310 310 310 310 311 311 310 307 306 307 308 309 309 308 307 306 304 303 301 300 297 296 293 291 289
59 53 47 40 34 27 21 15 9 3 357 353 350 346 343 339 336 334 332 331 329 327 326 324 323 322 320 319 318 317 315 315 315 315 315 314 314 313 313 312 311 311 312 312 312 312 313 314 317 318 315 312 310 311 312 313 314 313 312 310 309 307 304 302 299 295 291 288 285
57 51 44 36 28 20 13 6 360 354 349 346 344 342 339 337 334 332 330 328 327 326 325 323 322 321 320 320 319 317 317 317 317 317 317 317 316 316 316 315 315 315 315 316 317 317 319 323 327 326 320 316 316 317 318 321 322 322 320 319 318 316 314 309 304 298 292 286 282
51 44 37 29 21 14 7 1 356 351 349 347 345 344 342 340 337 334 332 330 330 329 327 326 325 324 323 322 321 321 320 320 321 321 321 320 320 320 321 321 320 320 320 321 323 327 331 335 337 333 326 322 322 324 326 329 330 331 331 332 333 332 330 325 318 310 302 295 289
43 37 30 24 18 12 7 1 357 355 353 352 350 349 346 344 342 339 337 336 335 334 332 330 329 328 326 325 324 324 323 324 324 325 325 325 325 326 326 326 325 325 326 328 333 341 346 345 344 338 331 327 327 329 331 334 335 338 340 343 345 346 344 341 338 334 329 324 319
36 32 27 22 18 14 10 7 4 2 360 358 356 354 351 349 347 345 342 340 339 337 335 334 332 330 328 327 327 327 327 328 328 329 329 331 331 331 331 331 329 329 331 337 347 355 355 349 345 339 334 331 331 331 333 334 337 341 346 350 351 351 350 351 354 356 358 358 357
34 30 27 24 21 17 14 12 10 7 4 2 360 357 355 353 350 348 345 342 341 339 337 336 334 332 330 330 330 330 330 331 332 333 335 337 337 336 336 335 334 334 337 344 356 2 359 352 346 341 338 335 334 333 332 334 337 344 351 354 353 351 352 357 3 8 11 11 11
34 31 28 26 23 20 17 14 12 9 6 4 1 359 357 354 351 348 346 344 342 340 339 338 336 334 333 333 333 333 334 335 337 339 342 343 343 342 341 340 340 341 342 345 354 358 357 353 349 345 342 340 336 333 332 333 340 348 354 355 352 350 350 354 0 5 7 7 6